Flag for France Weather past 2 weeks in Boulogne-Billancourt, France

Now
64 °F

Scattered clouds.


Feels Like: 64 °F
Forecast: 51 / 73 °F
Wind: 12 mph from West

Location: Paris-Orly

Current Time: Aug 31, 2014 at 12:25:27 PM

Latest Report: Aug 31, 2014 at 11:30 AM


Visibility: N/A

Pressure: 30.07 "Hg

Humidity: 68%

Dew point: 54 °F

Location of Boulogne-BillancourtLocation

Historic Weather in Boulogne-Billancourt — Graph

°F

Boulogne-Billancourt temperature yesterday

Maximum temperature yesterday: 72 °F (at 2:00 PM)
Minimum temperature yesterday: 54 °F (at 5:00 AM)
Average temperature yesterday: 62 °F

Past Weeks' High & Low Weather Summary

 TemperatureHumidityPressure
High73 °F (Aug 16, 5:00 PM)100% (Aug 26, 12:00 AM)30.21 "Hg (Aug 26, 12:00 AM)
Low43 °F (Aug 21, 6:30 AM)35% (Aug 21, 5:00 PM)29.65 "Hg (Aug 25, 11:00 PM)
Average61 °F73%29.99 "Hg
* Reported Aug 16 11:00 AM — Aug 31 11:00 AM, Boulogne-Billancourt, Weather by CustomWeather, © 2014

Note: Actual official high and low records may vary slightly from our data, if they occured in-between our weather recording intervals... More about our weather records

Advertising

Boulogne-Billancourt weather history for previous 24 hours

 ConditionsComfort  
Time TempWeatherWind HumidityBarometerVisibility
11:00 AM
Aug 31
64 °FScattered clouds.10 mph68%30.09 "HgN/A
10:30 AM63 °FBroken clouds.10 mph77%30.09 "HgN/A
10:00 AM61 °FPartly sunny.7 mph83%30.07 "HgN/A
9:30 AM59 °FPartly sunny.7 mph82%30.09 "HgN/A
9:00 AM57 °FPartly sunny.8 mph88%30.07 "HgN/A
8:30 AM57 °FScattered clouds.8 mph88%30.07 "HgN/A
8:00 AM55 °FPassing clouds.3 mph94%30.07 "HgN/A
7:30 AM54 °FPassing clouds.6 mph94%30.07 "HgN/A
7:00 AM54 °FPassing clouds.5 mph94%30.07 "HgN/A
6:30 AM55 °FPassing clouds.8 mph88%30.07 "HgN/A
6:00 AM55 °FPassing clouds.7 mph88%30.07 "HgN/A
5:30 AM55 °FPassing clouds.8 mph88%30.07 "HgN/A
5:00 AM55 °FPassing clouds.8 mph94%30.07 "HgN/A
4:30 AM57 °FPassing clouds.7 mph88%30.07 "HgN/A
4:00 AM57 °FPassing clouds.6 mph88%30.07 "HgN/A
3:30 AM59 °FPartly cloudy.5 mph88%30.07 "HgN/A
3:00 AM57 °FPassing clouds.6 mph94%30.07 "HgN/A
2:30 AM57 °FClear.6 mph94%30.07 "Hg10 mi
2:00 AM59 °FClear.5 mph88%30.09 "Hg10 mi
1:30 AM59 °FPassing clouds.5 mph88%30.09 "HgN/A
1:00 AM59 °FPassing clouds.3 mph88%30.09 "HgN/A
12:30 AM59 °FPartly cloudy.5 mph88%30.09 "HgN/A
12:00 AM59 °FPartly cloudy.7 mph88%30.09 "HgN/A
11:30 PM
Aug 30
61 °FLight rain. Mostly cloudy.8 mph83%30.09 "HgN/A
10:30 PM63 °FOvercast.9 mph77%30.09 "HgN/A
10:00 PM64 °FPassing clouds.8 mph73%30.09 "HgN/A
9:30 PM64 °FPartly sunny.6 mph73%30.09 "HgN/A
9:00 PM64 °FPartly sunny.8 mph73%30.09 "HgN/A
8:30 PM64 °FPartly sunny.9 mph73%30.09 "HgN/A
8:00 PM64 °FPartly sunny.8 mph73%30.09 "HgN/A
7:30 PM66 °FBroken clouds.9 mph68%30.09 "HgN/A
7:00 PM66 °FPartly sunny.10 mph73%30.09 "HgN/A
6:30 PM66 °FPartly sunny.12 mph68%30.09 "HgN/A
6:00 PM68 °FBroken clouds.13 mph69%30.09 "HgN/A
5:30 PM70 °FBroken clouds.10 mph64%30.07 "HgN/A
5:00 PM70 °FPartly sunny.10 mph64%30.07 "HgN/A
4:30 PM72 °FPartly sunny.12 mph61%30.09 "HgN/A
4:00 PM72 °FPartly sunny.12 mph61%30.09 "HgN/A
3:30 PM72 °FBroken clouds.9 mph61%30.09 "HgN/A
2:30 PM72 °FBroken clouds.10 mph61%30.09 "HgN/A
2:00 PM72 °FBroken clouds.10 mph57%30.09 "HgN/A
1:30 PM70 °FBroken clouds.9 mph64%30.09 "HgN/A
1:00 PM68 °FBroken clouds.12 mph64%30.09 "HgN/A
12:30 PM68 °FBroken clouds.12 mph64%30.09 "HgN/A
12:00 PM68 °FBroken clouds.12 mph64%30.12 "HgN/A
Weather by CustomWeather, © 2014

See weather overviewHow to use our weather pages